This demonstration page uses our WeatherBlox Daily Observations layout. Learn more.

38.88101, -77.10428

Hourly Observations for March 13, 2020

Temp ( °F °C ) Dew Point ( °F °C ) Humidity (%) Winds ( mph kmh ) Pressure ( in mb ) Visibility ( mi km ) Precip ( " mm )
12:15 am 00:15 Cloudy 52 11.1 47 8.3 83 83 E 6 9 29.97 1015 10 16.0934 0 0
12:52 am 00:52 Cloudy 52 11.1 47 8.3 83 83 ESE 3 6 29.96 1015 10 16.0934 0 0
1:05 am 01:05 Cloudy 52 11.1 48 8.9 86 86 E 3 6 29.95 1014 10 16.0934 0 0
1:52 am 01:52 Cloudy with Light Rain 51 10.6 49 9.4 92 92 ENE 3 6 29.94 1014 8 12.87472 0.001 0.001
2:07 am 02:07 Cloudy with Light Rain 51 10.6 49 9.4 92 92 ENE 6 9 29.93 1014 6 9.65604 0.01 0.254
2:50 am 02:50 Cloudy with Light Rain 52 11 50 10 94 94 ENE 6 9 29.9 1013 4 6.43736 0.09 2.286
2:52 am 02:52 Cloudy with Light Rain 51 10.6 50 10 96 96 E 6 9 29.9 1013 5 8.0467 0.09 2.286
3:15 am 03:15 Cloudy with Light Rain 51 10.6 50 10 96 96 ENE 3 6 29.89 1012 6 9.65604 0.02 0.508
3:52 am 03:52 Cloudy with Light Rain 51 10.6 50 10 96 96 Calm 29.87 1012 5 8.0467 0.05 1.27
4:31 am 04:31 Cloudy with Light Rain 52 11.1 51 10.6 97 97 SE 5 7 29.84 1011 8 12.87472 0.07 1.778
4:52 am 04:52 Cloudy with Light Rain 52 11.1 51 10.6 97 97 SSE 3 6 29.79 1009 10 16.0934 0.07 1.778
5:06 am 05:06 Cloudy 53 11.7 52 11.1 96 96 SSE 9 15 29.79 1009 10 16.0934 0.001 0.001
5:52 am 05:52 Cloudy 54 12.2 53 11.7 97 97 WSW 6 9 29.82 1010 10 16.0934 0.01 0.254
6:06 am 06:06 Cloudy 55 12.8 53 11.7 93 93 WSW 6 9 29.82 1010 10 16.0934 0 0
6:52 am 06:52 Cloudy 56 13.3 53 11.7 90 90 SSW 8 13 29.81 1010 10 16.0934 0 0
6:58 am 06:58 Cloudy 56 13.3 54 12.2 93 93 SW 7 11 29.82 1010 10 16.0934 0 0
7:52 am 07:52 Cloudy 55 12.8 54 12.2 96 96 SSW 6 9 29.82 1010 10 16.0934 0 0
8:30 am 08:30 Cloudy 56 13.3 54 12.2 93 93 SSW 6 9 29.82 1010 10 16.0934 0 0
8:52 am 08:52 Cloudy 56 13.3 53 11.7 90 90 SSW 9 15 29.82 1010 10 16.0934 0 0
9:52 am 09:52 Cloudy 58 14.4 55 12.8 90 90 SW 7 11 29.84 1010 7 11.26538 0 0
10:32 am 10:32 Partly Cloudy 61 16.1 56 13.3 84 84 WSW 3 6 29.85 1011 10 16.0934 0 0
10:52 am 10:52 Partly Cloudy 61 16.1 57 13.9 87 87 SSE 5 7 29.85 1011 10 16.0934 0 0
11:52 am 11:52 Partly Cloudy 69 20.6 58 14.4 68 68 WNW 10 17 29.87 1012 10 16.0934 0 0
12:52 pm 12:52 Mostly Cloudy 71 21.7 55 12.8 57 57 WNW 15 24 29.87 1012 10 16.0934 0 0
1:52 pm 13:52 Mostly Cloudy 73 22.8 55 12.8 53 53 WNW 14 22 29.88 1012 10 16.0934 0 0
2:52 pm 14:52 Mostly Cloudy 76 24.4 48 8.9 37 37 W 15 24 29.87 1012 10 16.0934 0 0
3:52 pm 15:52 Mostly Cloudy 76 24.4 45 7.2 33 33 W 13 20 29.89 1012 10 16.0934 0 0
4:52 pm 16:52 Mostly Cloudy 74 23.3 37 2.8 26 26 WNW 17 28 29.91 1013 10 16.0934 0 0
5:52 pm 17:52 Mostly Cloudy 71 21.7 34 1.1 26 26 NW 10 17 29.96 1015 10 16.0934 0 0
6:52 pm 18:52 Mostly Cloudy 68 20 29 -1.7 23 23 NW 17 28 30 1016 10 16.0934 0 0
7:52 pm 19:52 Cloudy 66 18.9 22 -5.6 19 19 WNW 17 28 30.05 1018 10 16.0934 0 0
8:52 pm 20:52 Cloudy 64 17.8 20 -6.7 18 18 NW 21 33 30.1 1019 10 16.0934 0 0
9:52 pm 21:52 Mostly Cloudy 62 16.7 24 -4.4 23 23 NW 15 24 30.14 1021 10 16.0934 0 0
10:52 pm 22:52 Mostly Cloudy 60 15.6 19 -7.2 20 20 WNW 12 19 30.17 1022 10 16.0934 0 0
11:52 pm 23:52 Mostly Cloudy 59 15 17 -8.3 19 19 NW 16 26 30.2 1023 10 16.0934 0 0

Powered by AerisWeather